Stations météo

réclame
Mon MeteoGroup
Camborne, Grande-Bretagne (3808): Température de l'air & dewpoint: 16.01.2018 20:00:00 - 22.01.2018 20:00:00 (GMT)Camborne, Grande-Bretagne (3808): Vitesse du vent & gusts: 16.01.2018 20:00:00 - 22.01.2018 20:00:00 (GMT)Camborne, Grande-Bretagne (3808): Direction du vent: 16.01.2018 20:00:00 - 22.01.2018 20:00:00 (GMT)Camborne, Grande-Bretagne (3808): reduced air pressure: 16.01.2018 20:00:00 - 22.01.2018 20:00:00 (GMT)Camborne, Grande-Bretagne (3808): visibility: 16.01.2018 20:00:00 - 22.01.2018 20:00:00 (GMT)Camborne, Grande-Bretagne (3808): Ensoleillement: 16.01.2018 20:00:00 - 22.01.2018 20:00:00 (GMT)Camborne, Grande-Bretagne (3808): Quantités de précipitations: 16.01.2018 20:00:00 - 22.01.2018 20:00:00 (GMT)
Date & Time tt [°C] td [°C] ff [km/h] ff [knt] fx [km/h] fx [knt] dd ppp [hPa] vv [km] sd [min] rr [mm]
22.01.2018 20:00:00 - - - - - - - - - - -
22.01.2018 19:00:00 8,5 7,7 15 8 - - SW 1020,3 12 0 0,0
22.01.2018 18:00:00 8,4 7,0 15 8 - - SW 1020,1 15 0 0,0
22.01.2018 17:00:00 9,3 7,4 13 7 - - SW 1019,6 15 6 0,0
22.01.2018 16:00:00 10,2 7,9 18 10 - - W 1019,4 12 0 0,0
22.01.2018 15:00:00 10,1 6,4 18 10 - - WNW 1018,9 8 0 0,0
22.01.2018 14:00:00 10,1 8,1 22 12 - - W 1018,5 8 30 0,0
22.01.2018 13:00:00 10,7 8,2 22 12 - - WNW 1018,2 8 36 0,0
22.01.2018 12:00:00 10,5 7,2 22 12 - - WNW 1018,0 8 24 0,0
22.01.2018 11:00:00 9,8 7,6 22 12 - - WNW 1017,3 8 0 0,0
22.01.2018 10:00:00 9,7 8,5 21 11 - - WNW 1016,4 7 0 0,0
22.01.2018 09:00:00 9,4 8,3 21 11 - - WNW 1015,0 6 0 0,0
22.01.2018 08:00:00 8,9 7,7 22 12 - - NW 1013,8 7 0 0,0
22.01.2018 07:00:00 9,1 8,7 22 12 - - NW 1011,7 6 0 0,2
22.01.2018 06:00:00 8,9 8,7 24 13 - - N 1010,0 4,0 0 3,2
22.01.2018 05:00:00 9,1 8,9 8 4 - - NE 1007,7 5 0 3,0
22.01.2018 04:00:00 9,1 9,0 8 4 - - NE 1007,9 2,5 0 5,0
22.01.2018 03:00:00 9,3 9,1 0 0 - - N 1008,3 3,5 0 2,2
22.01.2018 02:00:00 9,5 9,4 2 1 - - WNW 1009,4 2,5 0 5,0
22.01.2018 01:00:00 9,7 9,5 11 6 - - W 1010,7 3,0 0 3,8
22.01.2018 00:00:00 9,8 9,6 13 7 - - WSW 1010,9 4,0 - 1,4
21.01.2018 23:00:00 10,0 10,0 18 10 - - W 1012,0 2,0 0 0,2
21.01.2018 22:00:00 11,2 11,1 24 13 - - W 1012,1 2,5 0 0,0
21.01.2018 21:00:00 11,4 11,1 26 14 50 27 WSW 1012,1 3,5 0 0,0
21.01.2018 20:00:00 11,6 11,3 31 17 50 27 W 1012,1 2,5 0 0,0
21.01.2018 19:00:00 11,6 11,4 35 19 54 29 WSW 1011,7 4,0 0 0,0
21.01.2018 18:00:00 11,8 11,4 39 21 57 31 W 1011,6 1,5 0 0,2
21.01.2018 17:00:00 11,9 11,3 41 22 59 32 W 1011,2 3,0 0 0,4
21.01.2018 16:00:00 11,6 11,2 35 19 61 33 WSW 1011,4 3,0 0 0,2
21.01.2018 15:00:00 11,7 11,0 39 21 57 31 WSW 1011,7 2,5 0 0,0
21.01.2018 14:00:00 11,5 10,9 37 20 55 30 WSW 1012,1 2,5 0 0,0
21.01.2018 13:00:00 11,3 10,7 34 18 54 29 WSW 1012,6 6 0 0,0
21.01.2018 12:00:00 11,3 10,7 35 19 55 30 WSW 1013,0 5 0 0,0
21.01.2018 11:00:00 11,2 10,7 31 17 55 30 W 1013,8 2,0 0 0,0
21.01.2018 10:00:00 11,1 10,7 35 19 57 31 WSW 1013,4 4,0 0 0,0
21.01.2018 09:00:00 11,0 10,5 35 19 54 29 WSW 1013,2 5 0 0,0
21.01.2018 08:00:00 10,8 10,4 35 19 52 28 W 1013,2 5 0 0,0
21.01.2018 07:00:00 10,8 10,5 35 19 54 29 W 1012,9 5 0 0,2
21.01.2018 06:00:00 10,8 10,5 31 17 48 26 W 1012,8 4,0 0 0,0
21.01.2018 05:00:00 10,6 10,4 26 14 - - W 1013,2 2,0 0 0,4
21.01.2018 04:00:00 8,3 8,2 13 7 - - SW 1013,8 1,7 0 0,0
21.01.2018 03:00:00 8,3 8,1 9 5 - - SW 1013,7 1,7 0 0,2
21.01.2018 02:00:00 8,5 8,1 13 7 - - W 1014,1 2,1 0 0,8
21.01.2018 01:00:00 9,0 7,7 9 5 - - WSW 1013,4 5 0 0,0
21.01.2018 00:00:00 9,3 7,8 11 6 - - WNW 1013,4 5 - 0,0
20.01.2018 23:00:00 9,2 6,9 13 7 - - WNW 1012,4 6 0 0,0
20.01.2018 22:00:00 9,5 5,7 22 12 - - NW 1012,1 9 0 0,0
20.01.2018 21:00:00 9,3 6,9 22 12 - - WNW 1011,1 6 0 0,0
20.01.2018 20:00:00 9,2 7,2 28 15 - - WNW 1009,9 6 0 0,0
20.01.2018 19:00:00 9,4 6,9 28 15 50 27 NW 1009,1 8 0 0,0
20.01.2018 18:00:00 9,7 6,2 31 17 50 27 NW 1008,0 10 0 0,0
20.01.2018 17:00:00 9,9 6,8 31 17 52 28 WNW 1006,6 10 0 0,0
20.01.2018 16:00:00 10,6 8,9 34 18 54 29 WNW 1005,4 10 0 0,0
20.01.2018 15:00:00 10,9 9,5 37 20 61 33 WNW 1004,0 10 6 0,0
20.01.2018 14:00:00 11,0 10,3 39 21 61 33 WNW 1003,0 6 0 0,0
20.01.2018 13:00:00 10,9 10,8 41 22 63 34 W 1002,4 2,0 0 0,0
20.01.2018 12:00:00 10,8 10,5 35 19 57 31 W 1002,7 3,0 0 0,2
20.01.2018 11:00:00 10,6 10,4 34 18 61 33 W 1002,7 4,0 0 0,0
20.01.2018 10:00:00 10,5 10,3 34 18 54 29 WNW 1002,0 2,5 0 0,0
20.01.2018 09:00:00 10,4 10,0 34 18 54 29 WNW 1001,4 6 0 0,2
20.01.2018 08:00:00 10,6 10,1 35 19 59 32 WNW 1000,5 4,0 0 0,0
20.01.2018 07:00:00 10,6 10,2 31 17 57 31 WNW 999,6 3,0 0 0,0
20.01.2018 06:00:00 10,8 10,5 37 20 59 32 W 999,0 2,8 0 0,0
20.01.2018 05:00:00 11,0 10,5 41 22 63 34 W 999,0 3,0 0 0,4
20.01.2018 04:00:00 10,7 10,3 31 17 48 26 W 999,4 2,6 0 1,8
20.01.2018 03:00:00 7,2 6,6 26 14 - - SSE 1001,0 7 0 2,2
20.01.2018 02:00:00 6,9 6,3 24 13 - - SSE 1003,2 7 0 2,6
20.01.2018 01:00:00 7,0 6,5 16 9 - - S 1007,0 5 0 2,4
20.01.2018 00:00:00 6,6 6,1 15 8 - - SW 1009,7 7 - 1,4
19.01.2018 23:00:00 6,1 5,3 15 8 - - SW 1011,3 7 0 0,6
19.01.2018 22:00:00 5,8 4,7 11 6 - - SW 1012,5 11 0 1,4
19.01.2018 21:00:00 5,7 3,7 11 6 - - SW 1013,1 16 0 0,0
19.01.2018 20:00:00 6,0 3,5 15 8 - - WSW 1013,6 17 0 0,0
19.01.2018 19:00:00 6,2 4,6 24 13 - - W 1013,7 18 0 0,2
19.01.2018 18:00:00 6,2 4,5 24 13 - - W 1013,6 20 0 0,2
19.01.2018 17:00:00 6,3 2,3 22 12 - - W 1013,8 25 0 0,0
19.01.2018 16:00:00 6,4 3,3 22 12 - - W 1014,0 25 6 0,0
19.01.2018 15:00:00 6,7 3,6 18 10 - - WNW 1013,8 25 0 0,2
19.01.2018 14:00:00 4,7 2,7 31 17 57 31 WNW 1014,2 25 6 1,0
19.01.2018 13:00:00 7,4 2,4 28 15 - - W 1013,9 25 30 0,0
19.01.2018 12:00:00 7,1 2,6 22 12 - - W 1014,1 30 6 0,0
19.01.2018 11:00:00 7,0 2,1 24 13 - - W 1014,5 30 42 0,0
19.01.2018 10:00:00 5,0 2,1 28 15 46 25 NW 1014,3 30 0 0,2
19.01.2018 09:00:00 5,8 1,7 16 9 - - NW 1013,8 30 0 0,0
19.01.2018 08:00:00 6,0 -0,8 24 13 - - WNW 1013,3 30 0 0,0
19.01.2018 07:00:00 6,0 1,9 22 12 - - WNW 1012,9 16 0 0,0
19.01.2018 06:00:00 6,2 -0,2 24 13 - - WNW 1012,8 29 0 0,0
19.01.2018 05:00:00 6,6 0,4 24 13 - - NW 1012,3 22 0 0,0
19.01.2018 04:00:00 5,1 1,8 21 11 - - W 1012,3 6 0 0,0
19.01.2018 03:00:00 5,8 2,3 26 14 52 28 WNW 1012,1 21 0 0,0
19.01.2018 02:00:00 6,5 0,7 31 17 52 28 WNW 1011,5 22 0 0,0
19.01.2018 01:00:00 6,5 0,5 29 16 - - W 1011,5 30 0 0,0
19.01.2018 00:00:00 5,4 1,4 26 14 54 29 W 1011,8 30 - 0,2
18.01.2018 23:00:00 6,0 2,4 34 18 54 29 W 1011,8 17 0 0,0
18.01.2018 22:00:00 6,1 1,9 26 14 48 26 WNW 1011,5 11 0 0,0
18.01.2018 21:00:00 5,4 2,0 18 10 55 30 WNW 1011,6 22 0 0,0
18.01.2018 20:00:00 7,0 0,7 26 14 - - WNW 1011,2 25 0 0,0
18.01.2018 19:00:00 7,4 0,4 29 16 52 28 WNW 1010,7 30 0 0,0
18.01.2018 18:00:00 6,5 0,5 31 17 50 27 WNW 1010,4 18 0 0,0
18.01.2018 17:00:00 7,4 0,7 29 16 50 27 WNW 1009,7 20 6 0,0
18.01.2018 16:00:00 7,7 2,1 28 15 52 28 WNW 1008,8 25 54 0,0
18.01.2018 15:00:00 7,5 4,3 28 15 59 32 WNW 1008,2 22 18 0,6
18.01.2018 14:00:00 8,1 5,2 24 13 54 29 WNW 1007,7 10 18 0,2
18.01.2018 13:00:00 9,0 5,8 28 15 46 25 WNW 1007,4 16 18 0,0
18.01.2018 12:00:00 8,0 5,7 28 15 48 26 WNW 1007,8 14 0 0,4
18.01.2018 11:00:00 8,6 6,0 28 15 48 26 W 1007,6 7 24 0,0
18.01.2018 10:00:00 7,8 5,8 31 17 52 28 WNW 1007,2 20 0 0,6
18.01.2018 09:00:00 9,0 4,9 28 15 48 26 W 1006,4 12 0 0,0
18.01.2018 08:00:00 8,7 4,9 29 16 46 25 WNW 1006,2 10 0 0,0
18.01.2018 07:00:00 9,1 4,1 26 14 57 31 WNW 1005,7 14 0 0,0
18.01.2018 06:00:00 8,9 4,8 31 17 55 30 WNW 1005,2 10 0 0,0
18.01.2018 05:00:00 9,5 5,8 34 18 59 32 WNW 1004,9 8 0 0,0
18.01.2018 04:00:00 9,9 6,8 39 21 72 39 WNW 1004,4 6 0 0,0
18.01.2018 03:00:00 11,1 9,6 48 26 83 45 W 1003,6 8 0 0,0
18.01.2018 02:00:00 11,1 10,2 57 31 98 53 W 1003,3 9 0 0,0
18.01.2018 01:00:00 11,1 10,2 61 33 89 48 W 1003,2 3,0 0 0,2
18.01.2018 00:00:00 10,8 10,0 54 29 93 50 WSW 1003,9 3,0 - 0,2
17.01.2018 23:00:00 10,3 9,5 50 27 81 44 WSW 1004,5 3,0 0 1,2
17.01.2018 22:00:00 9,9 8,9 52 28 80 43 WSW 1005,5 3,5 0 1,0
17.01.2018 21:00:00 9,6 8,3 52 28 80 43 WSW 1007,1 5 0 0,6
17.01.2018 20:00:00 8,2 7,7 37 20 55 30 SW 1008,8 2,0 0 1,4
17.01.2018 19:00:00 7,9 6,4 26 14 - - WSW 1011,0 6 0 0,6
17.01.2018 18:00:00 7,7 5,4 28 15 - - WSW 1012,5 6 0 0,0
17.01.2018 17:00:00 7,4 4,4 28 15 - - W 1013,1 12 0 0,4
17.01.2018 16:00:00 6,8 4,9 24 13 57 31 W 1014,2 8 0 0,8
17.01.2018 15:00:00 6,7 4,7 22 12 52 28 W 1015,1 12 0 1,0
17.01.2018 14:00:00 7,5 3,7 31 17 54 29 WNW 1015,7 12 0 0,0
17.01.2018 13:00:00 7,5 3,7 31 17 50 27 W 1016,0 15 30 0,0
17.01.2018 12:00:00 7,6 2,1 35 19 55 30 WNW 1016,0 20 18 0,2
17.01.2018 11:00:00 7,8 1,9 35 19 52 28 WNW 1015,8 20 24 0,0
17.01.2018 10:00:00 7,1 1,8 34 18 63 34 WNW 1015,4 18 6 0,2
17.01.2018 09:00:00 6,7 2,0 31 17 63 34 WNW 1014,6 12 0 0,0
17.01.2018 08:00:00 5,3 2,3 39 21 65 35 WNW 1013,5 15 0 0,0
17.01.2018 07:00:00 6,9 1,5 34 18 63 34 WNW 1012,5 10 0 0,0
17.01.2018 06:00:00 7,0 -0,8 37 20 61 33 WNW 1011,7 11 0 0,0
17.01.2018 05:00:00 6,5 -1,1 35 19 67 36 NW 1010,6 14 0 0,0
17.01.2018 04:00:00 6,2 -1,3 48 26 74 40 NW 1009,5 14 0 0,0
17.01.2018 03:00:00 6,0 1,0 44 24 74 40 WNW 1008,1 12 0 0,0
17.01.2018 02:00:00 4,6 1,2 39 21 91 49 WNW 1007,2 15 0 0,6
17.01.2018 01:00:00 5,1 1,8 50 27 89 48 WNW 1006,6 6 0 0,0
17.01.2018 00:00:00 5,0 0,9 52 28 91 49 WNW 1005,9 10 - 0,4
16.01.2018 23:00:00 5,8 -0,6 46 25 78 42 WNW 1004,9 5 0 0,0
16.01.2018 22:00:00 4,9 1,4 46 25 85 46 WNW 1004,0 6 0 0,2
16.01.2018 21:00:00 4,6 1,6 48 26 80 43 WNW 1003,2 10 0 0,0
16.01.2018 20:00:00 4,3 2,6 37 20 87 47 WNW 1003,0 20 0 0,8

tt = Température de l'air
td = dewpoint
ff = Vitesse du vent
fx = gusts
dd = Direction du vent
ppp = reduced air pressure
vv = visibility
sd = Ensoleillement
rr = Quantités de précipitations

stations d'obs. à proximité